TimeCDT,TemperatureF,Dew PointF,Humidity,Sea Level PressureIn,VisibilityMPH,Wind Direction,Wind SpeedMPH,Gust SpeedMPH,PrecipitationIn,Events,Conditions,WindDirDegrees,DateUTC
12:15 AM,62.2,59.9,92,30.14,0.5,East,3.5,-,N/A,Fog,Fog,100,2013-08-16 05:15:00
12:55 AM,62.4,59.9,91,30.14,2.0,East,4.6,-,N/A,,Overcast,80,2013-08-16 05:55:00
1:15 AM,62.2,59.7,91,30.14,0.5,East,4.6,-,N/A,Fog,Fog,90,2013-08-16 06:15:00
1:35 AM,62.1,59.7,92,30.14,0.8,East,3.5,-,N/A,,Overcast,80,2013-08-16 06:35:00
1:55 AM,62.1,59.9,93,30.14,2.0,Calm,Calm,-,N/A,,Overcast,0,2013-08-16 06:55:00
2:15 AM,62.1,59.5,91,30.14,3.0,ESE,3.5,-,N/A,,Overcast,120,2013-08-16 07:15:00
2:35 AM,62.2,59.5,91,30.14,3.0,ESE,3.5,-,N/A,,Overcast,120,2013-08-16 07:35:00
2:55 AM,62.6,59.4,89,30.14,3.0,Calm,Calm,-,N/A,,Overcast,0,2013-08-16 07:55:00
3:15 AM,62.4,59.2,89,30.14,2.5,Calm,Calm,-,N/A,,Overcast,0,2013-08-16 08:15:00
3:35 AM,62.2,59.4,90,30.13,2.5,ENE,4.6,-,N/A,,Overcast,70,2013-08-16 08:35:00
3:55 AM,61.7,59.0,91,30.14,2.0,East,3.5,-,N/A,,Overcast,90,2013-08-16 08:55:00
4:15 AM,61.7,59.0,91,30.13,2.5,ESE,3.5,-,N/A,,Overcast,110,2013-08-16 09:15:00
4:35 AM,61.3,58.6,91,30.14,2.5,Calm,Calm,-,N/A,,Overcast,0,2013-08-16 09:35:00
4:55 AM,61.9,59.2,91,30.13,2.5,SE,3.5,-,N/A,,Overcast,140,2013-08-16 09:55:00
5:15 AM,62.1,59.2,90,30.13,3.0,SE,4.6,-,N/A,,Overcast,130,2013-08-16 10:15:00
5:35 AM,61.7,58.6,90,30.13,2.5,ESE,3.5,-,N/A,,Overcast,120,2013-08-16 10:35:00
5:55 AM,60.8,58.1,91,30.13,2.0,Calm,Calm,-,N/A,,Mist,0,2013-08-16 10:55:00
6:15 AM,61.7,58.6,90,30.14,3.0,SE,3.5,-,N/A,,Overcast,140,2013-08-16 11:15:00
6:35 AM,61.3,58.5,90,30.14,2.5,ESE,3.5,-,N/A,,Overcast,120,2013-08-16 11:35:00
6:55 AM,59.9,57.2,91,30.15,1.0,Calm,Calm,-,N/A,,Mostly Cloudy,0,2013-08-16 11:55:00
7:15 AM,60.1,57.6,91,30.15,1.2,Calm,Calm,-,N/A,,Overcast,0,2013-08-16 12:15:00
7:35 AM,61.0,58.5,91,30.15,1.2,Calm,Calm,-,N/A,,Overcast,0,2013-08-16 12:35:00
7:55 AM,61.3,58.8,91,30.16,1.8,Calm,Calm,-,N/A,,Overcast,0,2013-08-16 12:55:00
8:15 AM,61.7,58.6,90,30.17,2.0,Calm,Calm,-,N/A,,Overcast,0,2013-08-16 13:15:00
8:35 AM,61.9,58.3,88,30.17,2.5,Calm,Calm,-,N/A,,Overcast,0,2013-08-16 13:35:00
8:55 AM,62.6,58.8,87,30.16,3.0,East,3.5,-,N/A,,Overcast,100,2013-08-16 13:55:00
9:15 AM,63.5,59.0,85,30.17,4.0,East,3.5,-,N/A,,Overcast,100,2013-08-16 14:15:00
9:35 AM,63.1,58.6,85,30.17,5.0,ESE,5.8,-,N/A,,Overcast,120,2013-08-16 14:35:00
9:55 AM,62.6,58.3,86,30.17,5.0,ESE,5.8,-,N/A,,Haze,120,2013-08-16 14:55:00
10:15 AM,62.8,58.3,85,30.17,5.0,SE,5.8,-,N/A,,Haze,140,2013-08-16 15:15:00
10:35 AM,63.0,58.1,84,30.17,5.0,South,4.6,-,N/A,,Haze,170,2013-08-16 15:35:00
10:55 AM,64.9,58.3,79,30.17,7.0,SE,3.5,-,N/A,,Overcast,130,2013-08-16 15:55:00
11:15 AM,64.9,59.0,81,30.17,7.0,SSE,8.1,-,N/A,,Overcast,150,2013-08-16 16:15:00
11:35 AM,67.1,58.5,74,30.17,7.0,SSE,5.8,-,N/A,,Overcast,150,2013-08-16 16:35:00
11:55 AM,66.4,58.3,75,30.17,10.0,SSE,3.5,-,N/A,,Overcast,150,2013-08-16 16:55:00
12:15 PM,66.6,57.6,73,30.17,10.0,South,4.6,-,N/A,,Overcast,170,2013-08-16 17:15:00
12:35 PM,67.5,58.1,72,30.17,10.0,SSE,3.5,-,N/A,,Overcast,160,2013-08-16 17:35:00
12:55 PM,67.3,57.6,71,30.17,10.0,South,5.8,-,N/A,,Overcast,190,2013-08-16 17:55:00
1:15 PM,67.6,58.1,71,30.17,10.0,South,3.5,-,N/A,,Overcast,170,2013-08-16 18:15:00
1:35 PM,68.5,58.8,71,30.17,10.0,SSE,6.9,-,N/A,,Overcast,160,2013-08-16 18:35:00
1:55 PM,69.3,58.1,68,30.16,10.0,SE,5.8,-,N/A,,Overcast,140,2013-08-16 18:55:00
2:15 PM,70.7,58.6,66,30.16,10.0,South,4.6,-,N/A,,Overcast,170,2013-08-16 19:15:00
2:35 PM,70.3,57.6,64,30.16,10.0,South,4.6,-,N/A,,Overcast,180,2013-08-16 19:35:00
2:55 PM,71.8,56.1,58,30.16,10.0,SSE,5.8,-,N/A,,Mostly Cloudy,150,2013-08-16 19:55:00
3:15 PM,71.6,56.8,60,30.15,10.0,South,4.6,-,N/A,,Scattered Clouds,170,2013-08-16 20:15:00
3:35 PM,71.6,55.9,58,30.15,10.0,Calm,Calm,-,N/A,,Mostly Cloudy,0,2013-08-16 20:35:00
3:55 PM,72.1,56.5,58,30.15,10.0,SSE,9.2,-,N/A,,Overcast,160,2013-08-16 20:55:00
4:15 PM,72.5,57.6,59,30.14,10.0,South,6.9,-,N/A,,Mostly Cloudy,170,2013-08-16 21:15:00
4:35 PM,73.2,57.6,58,30.14,10.0,SW,6.9,-,N/A,,Scattered Clouds,220,2013-08-16 21:35:00
4:55 PM,73.8,55.8,53,30.14,10.0,South,6.9,-,N/A,,Scattered Clouds,180,2013-08-16 21:55:00
5:15 PM,74.1,57.6,56,30.14,10.0,SE,5.8,-,N/A,,Mostly Cloudy,140,2013-08-16 22:15:00
5:35 PM,73.4,58.3,59,30.14,10.0,SE,5.8,-,N/A,,Overcast,140,2013-08-16 22:35:00
5:55 PM,72.0,60.8,68,30.14,10.0,ESE,9.2,-,N/A,,Mostly Cloudy,120,2013-08-16 22:55:00
6:15 PM,72.1,61.0,68,30.13,10.0,SE,9.2,-,N/A,,Mostly Cloudy,130,2013-08-16 23:15:00
6:35 PM,72.5,60.8,67,30.13,10.0,SE,10.4,-,N/A,,Scattered Clouds,130,2013-08-16 23:35:00
6:55 PM,72.7,61.3,67,30.14,10.0,SE,8.1,-,N/A,,Mostly Cloudy,130,2013-08-16 23:55:00
7:15 PM,70.7,60.6,70,30.14,10.0,SE,10.4,-,N/A,,Mostly Cloudy,130,2013-08-17 00:15:00
7:35 PM,70.2,60.3,71,30.13,10.0,SE,10.4,-,N/A,,Scattered Clouds,140,2013-08-17 00:35:00
7:55 PM,69.4,60.1,72,30.14,10.0,SE,9.2,-,N/A,,Scattered Clouds,140,2013-08-17 00:55:00
8:15 PM,68.4,60.1,75,30.14,10.0,SE,6.9,-,N/A,,Scattered Clouds,140,2013-08-17 01:15:00
8:35 PM,67.3,59.9,77,30.14,10.0,SE,6.9,-,N/A,,Clear,140,2013-08-17 01:35:00
8:55 PM,66.6,59.9,79,30.14,10.0,SE,8.1,-,N/A,,Clear,140,2013-08-17 01:55:00
9:15 PM,66.2,59.9,80,30.14,10.0,SE,9.2,-,N/A,,Scattered Clouds,140,2013-08-17 02:15:00
9:35 PM,65.7,60.8,84,30.15,10.0,SSE,8.1,-,N/A,,Scattered Clouds,150,2013-08-17 02:35:00
9:55 PM,65.1,60.8,86,30.15,7.0,SSE,8.1,-,N/A,,Clear,150,2013-08-17 02:55:00
10:15 PM,64.6,60.8,88,30.16,7.0,SSE,10.4,-,N/A,,Clear,150,2013-08-17 03:15:00
10:35 PM,64.2,60.6,88,30.16,5.0,SSE,8.1,-,N/A,,Clear,150,2013-08-17 03:35:00
10:55 PM,63.7,60.3,89,30.16,5.0,SSE,8.1,-,N/A,,Clear,150,2013-08-17 03:55:00
11:15 PM,63.5,60.1,89,30.16,4.0,SSE,8.1,-,N/A,,Clear,150,2013-08-17 04:15:00
11:35 PM,63.1,59.9,89,30.16,4.0,SSE,8.1,-,N/A,,Clear,150,2013-08-17 04:35:00
11:55 PM,62.8,59.9,90,30.16,4.0,SSE,8.1,-,N/A,,Clear,150,2013-08-17 04:55:00